Time,TemperatureF,DewpointF,PressureIn,WindDirection,WindDirectionDegrees,WindSpeedMPH,WindSpeedGustMPH,Humidity,HourlyPrecipIn,Conditions,Clouds,dailyrainin,SoftwareType,DateUTC
2013-12-25 00:01:00,-33.5,-39.6,28.58,SSW,202,0.0,0.0,68,0.00,,,0.00,JAVA,2013-12-25 09:01:00,
2013-12-25 00:06:00,-33.8,-40.1,28.57,SSW,202,0.0,0.0,67,0.00,,,0.00,JAVA,2013-12-25 09:06:00,
2013-12-25 00:11:00,-33.9,-40.4,28.57,SSW,202,0.0,0.0,67,0.00,,,0.00,JAVA,2013-12-25 09:11:00,
2013-12-25 00:17:00,-34.2,-40.8,28.57,SSW,202,0.0,0.0,67,0.00,,,0.00,JAVA,2013-12-25 09:17:00,
2013-12-25 00:22:00,-34.8,-41.3,28.57,SSW,202,0.0,0.0,66,0.00,,,0.00,JAVA,2013-12-25 09:22:00,
2013-12-25 00:27:00,-35.0,-41.4,28.57,SSW,202,0.0,0.0,67,0.00,,,0.00,JAVA,2013-12-25 09:27:00,
2013-12-25 00:32:00,-34.4,-40.7,28.57,SSW,202,0.0,0.0,68,0.00,,,0.00,JAVA,2013-12-25 09:32:00,
2013-12-25 00:37:00,-34.1,-40.4,28.57,SSW,202,0.0,0.0,69,0.00,,,0.00,JAVA,2013-12-25 09:37:00,
2013-12-25 00:42:00,-34.5,-41.0,28.57,SSW,202,0.0,0.0,68,0.00,,,0.00,JAVA,2013-12-25 09:42:00,
2013-12-25 00:47:00,-34.7,-40.8,28.57,SSW,202,0.0,0.0,68,0.00,,,0.00,JAVA,2013-12-25 09:47:00,
2013-12-25 00:52:00,-34.5,-40.8,28.57,SSW,202,0.0,0.0,69,0.00,,,0.00,JAVA,2013-12-25 09:52:00,
2013-12-25 00:57:00,-34.8,-41.0,28.57,SSW,202,0.0,0.0,68,0.00,,,0.00,JAVA,2013-12-25 09:57:00,
2013-12-25 01:02:00,-34.7,-40.7,28.57,SSW,202,0.0,0.0,69,0.00,,,0.00,JAVA,2013-12-25 10:02:00,
2013-12-25 01:08:00,-34.1,-39.9,28.57,SSW,202,0.0,0.0,70,0.00,,,0.00,JAVA,2013-12-25 10:08:00,
2013-12-25 01:13:00,-34.0,-40.1,28.57,SSW,202,0.0,0.0,69,0.00,,,0.00,JAVA,2013-12-25 10:13:00,
2013-12-25 01:18:00,-34.5,-40.8,28.57,SSW,202,0.0,0.0,68,0.00,,,0.00,JAVA,2013-12-25 10:18:00,
2013-12-25 01:23:00,-34.7,-40.9,28.56,SSW,202,0.0,0.0,68,0.00,,,0.00,JAVA,2013-12-25 10:23:00,
2013-12-25 01:36:00,-34.9,-40.8,28.55,SSW,202,0.0,0.0,69,0.00,,,0.00,JAVA,2013-12-25 10:36:00,
2013-12-25 01:41:00,-34.7,-40.5,28.56,SSW,202,0.0,0.0,69,0.00,,,0.00,JAVA,2013-12-25 10:41:00,
2013-12-25 01:46:00,-34.0,-39.7,28.56,SSW,202,0.0,0.0,70,0.00,,,0.00,JAVA,2013-12-25 10:46:00,
2013-12-25 01:51:00,-34.1,-39.7,28.55,SSW,202,0.0,0.0,70,0.00,,,0.00,JAVA,2013-12-25 10:51:00,
2013-12-25 01:56:00,-33.9,-39.3,28.55,SSW,202,0.0,0.0,70,0.00,,,0.00,JAVA,2013-12-25 10:56:00,
2013-12-25 02:01:00,-33.9,-39.4,28.55,SSW,202,0.0,0.0,70,0.00,,,0.00,JAVA,2013-12-25 11:01:00,
2013-12-25 02:06:00,-33.4,-39.6,28.55,SSW,202,0.0,0.0,68,0.00,,,0.00,JAVA,2013-12-25 11:06:00,
2013-12-25 02:11:00,-33.5,-39.9,28.55,SSW,202,0.0,0.0,68,0.00,,,0.00,JAVA,2013-12-25 11:11:00,
2013-12-25 02:16:00,-34.1,-40.8,28.55,SSW,202,0.0,0.0,66,0.00,,,0.00,JAVA,2013-12-25 11:16:00,
2013-12-25 02:22:00,-34.9,-41.7,28.55,SSW,202,0.0,0.0,66,0.00,,,0.00,JAVA,2013-12-25 11:22:00,
2013-12-25 02:27:00,-35.1,-41.8,28.55,SSW,202,0.0,0.0,67,0.00,,,0.00,JAVA,2013-12-25 11:27:00,
2013-12-25 02:32:00,-34.8,-41.0,28.55,SSW,202,0.0,0.0,69,0.00,,,0.00,JAVA,2013-12-25 11:32:00,
2013-12-25 02:37:00,-35.0,-41.2,28.55,SSW,202,0.0,0.0,68,0.00,,,0.00,JAVA,2013-12-25 11:37:00,
2013-12-25 02:42:00,-35.3,-41.6,28.55,SSW,202,0.0,0.0,67,0.00,,,0.00,JAVA,2013-12-25 11:42:00,
2013-12-25 02:47:00,-35.3,-41.7,28.55,SSW,202,0.0,0.0,67,0.00,,,0.00,JAVA,2013-12-25 11:47:00,
2013-12-25 02:52:00,-34.9,-41.4,28.55,SSW,202,0.0,0.0,69,0.00,,,0.00,JAVA,2013-12-25 11:52:00,
2013-12-25 02:57:00,-35.1,-41.2,28.55,SSW,202,0.0,0.0,68,0.00,,,0.00,JAVA,2013-12-25 11:57:00,
2013-12-25 03:02:00,-35.0,-41.4,28.55,SSW,202,0.0,0.0,67,0.00,,,0.00,JAVA,2013-12-25 12:02:00,
2013-12-25 03:07:00,-35.7,-42.3,28.55,SSW,202,0.0,0.0,67,0.00,,,0.00,JAVA,2013-12-25 12:07:00,
2013-12-25 03:12:00,-36.2,-42.6,28.55,SSW,202,0.0,0.0,67,0.00,,,0.00,JAVA,2013-12-25 12:12:00,
2013-12-25 03:17:00,-36.0,-42.5,28.54,SSW,202,0.0,0.0,67,0.00,,,0.00,JAVA,2013-12-25 12:17:00,
2013-12-25 03:22:00,-36.2,-42.5,28.55,SSW,202,0.0,0.0,67,0.00,,,0.00,JAVA,2013-12-25 12:22:00,
2013-12-25 03:27:00,-36.1,-42.4,28.55,SSW,202,0.0,0.0,68,0.00,,,0.00,JAVA,2013-12-25 12:27:00,
2013-12-25 03:32:00,-35.6,-42.0,28.55,SSW,202,0.0,0.0,68,0.00,,,0.00,JAVA,2013-12-25 12:32:00,
2013-12-25 03:38:00,-35.4,-41.7,28.55,SSW,202,0.0,0.0,68,0.00,,,0.00,JAVA,2013-12-25 12:38:00,
2013-12-25 03:52:00,-35.8,-41.8,28.55,SSW,202,0.0,0.0,68,0.00,,,0.00,JAVA,2013-12-25 12:52:00,
2013-12-25 03:57:00,-35.6,-41.7,28.55,SSW,202,0.0,0.0,68,0.00,,,0.00,JAVA,2013-12-25 12:57:00,
2013-12-25 04:02:00,-35.1,-41.0,28.55,SSW,202,0.0,0.0,69,0.00,,,0.00,JAVA,2013-12-25 13:02:00,
2013-12-25 04:07:00,-34.8,-40.8,28.55,SSW,202,0.0,0.0,69,0.00,,,0.00,JAVA,2013-12-25 13:07:00,
2013-12-25 04:12:00,-34.4,-40.7,28.55,SSW,202,0.0,0.0,68,0.00,,,0.00,JAVA,2013-12-25 13:12:00,
2013-12-25 04:18:00,-34.8,-41.0,28.55,SSW,202,0.0,0.0,68,0.00,,,0.00,JAVA,2013-12-25 13:18:00,
2013-12-25 04:23:00,-34.5,-41.0,28.54,SSW,202,0.0,0.0,68,0.00,,,0.00,JAVA,2013-12-25 13:23:00,
2013-12-25 04:28:00,-35.1,-41.7,28.54,SSW,202,0.0,0.0,66,0.00,,,0.00,JAVA,2013-12-25 13:28:00,
2013-12-25 04:33:00,-35.3,-41.9,28.54,SSW,202,0.0,0.0,67,0.00,,,0.00,JAVA,2013-12-25 13:33:00,
2013-12-25 04:38:00,-35.2,-41.6,28.54,SSW,202,0.0,0.0,68,0.00,,,0.00,JAVA,2013-12-25 13:38:00,
2013-12-25 04:43:00,-35.0,-41.4,28.54,SSW,202,0.0,0.0,68,0.00,,,0.00,JAVA,2013-12-25 13:43:00,
2013-12-25 04:48:00,-35.4,-41.8,28.54,SSW,202,0.0,0.0,68,0.00,,,0.00,JAVA,2013-12-25 13:48:00,
2013-12-25 04:53:00,-35.3,-41.8,28.54,SSW,202,0.0,0.0,67,0.00,,,0.00,JAVA,2013-12-25 13:53:00,
2013-12-25 04:58:00,-35.6,-41.8,28.54,SSW,202,0.0,0.0,67,0.00,,,0.00,JAVA,2013-12-25 13:58:00,
2013-12-25 05:03:00,-35.7,-42.0,28.54,SSW,202,0.0,0.0,68,0.00,,,0.00,JAVA,2013-12-25 14:03:00,
2013-12-25 05:08:00,-35.8,-41.9,28.54,SSW,202,0.0,0.0,68,0.00,,,0.00,JAVA,2013-12-25 14:08:00,
2013-12-25 05:14:00,-35.7,-41.9,28.54,SSW,202,0.0,0.0,68,0.00,,,0.00,JAVA,2013-12-25 14:14:00,
2013-12-25 05:19:00,-35.8,-42.2,28.54,SSW,202,0.0,0.0,67,0.00,,,0.00,JAVA,2013-12-25 14:19:00,
2013-12-25 05:24:00,-36.0,-42.5,28.54,SSW,202,0.0,0.0,67,0.00,,,0.00,JAVA,2013-12-25 14:24:00,
2013-12-25 05:29:00,-35.9,-42.1,28.54,SSW,202,0.0,0.0,68,0.00,,,0.00,JAVA,2013-12-25 14:29:00,
2013-12-25 05:34:00,-35.3,-41.3,28.54,SSW,202,0.0,0.0,69,0.00,,,0.00,JAVA,2013-12-25 14:34:00,
2013-12-25 05:39:00,-35.0,-41.1,28.55,SSW,202,0.0,0.0,69,0.00,,,0.00,JAVA,2013-12-25 14:39:00,
2013-12-25 05:44:00,-35.0,-41.2,28.54,SSW,202,0.0,0.0,68,0.00,,,0.00,JAVA,2013-12-25 14:44:00,
2013-12-25 05:49:00,-35.3,-41.7,28.54,SSW,202,0.0,0.0,67,0.00,,,0.00,JAVA,2013-12-25 14:49:00,
2013-12-25 05:54:00,-35.7,-41.7,28.54,SSW,202,0.0,0.0,68,0.00,,,0.00,JAVA,2013-12-25 14:54:00,
2013-12-25 06:00:00,-35.1,-41.2,28.54,SSW,202,0.0,0.0,69,0.00,,,0.00,JAVA,2013-12-25 15:00:00,
2013-12-25 06:05:00,-34.7,-40.7,28.54,SSW,202,0.0,0.0,69,0.00,,,0.00,JAVA,2013-12-25 15:05:00,
2013-12-25 06:10:00,-35.1,-41.6,28.54,SSW,202,0.0,0.0,67,0.00,,,0.00,JAVA,2013-12-25 15:10:00,
2013-12-25 06:15:00,-35.7,-42.1,28.54,SSW,202,0.0,0.0,66,0.00,,,0.00,JAVA,2013-12-25 15:15:00,
2013-12-25 06:20:00,-35.8,-42.3,28.54,SSW,202,0.0,0.0,66,0.00,,,0.00,JAVA,2013-12-25 15:20:00,
2013-12-25 06:25:00,-35.7,-42.4,28.54,SSW,202,0.0,0.0,67,0.00,,,0.00,JAVA,2013-12-25 15:25:00,
2013-12-25 06:30:00,-35.7,-41.9,28.54,SSW,202,0.0,0.0,68,0.00,,,0.00,JAVA,2013-12-25 15:30:00,
2013-12-25 06:35:00,-35.2,-41.7,28.54,SSW,202,0.0,0.0,68,0.00,,,0.00,JAVA,2013-12-25 15:35:00,
2013-12-25 06:40:00,-35.1,-41.2,28.53,SSW,202,0.0,0.0,68,0.00,,,0.00,JAVA,2013-12-25 15:40:00,
2013-12-25 06:46:00,-34.8,-41.1,28.53,SSW,202,0.0,0.0,68,0.00,,,0.00,JAVA,2013-12-25 15:46:00,
2013-12-25 06:51:00,-35.1,-41.3,28.54,SSW,202,0.0,0.0,68,0.00,,,0.00,JAVA,2013-12-25 15:51:00,
2013-12-25 06:56:00,-34.9,-41.3,28.53,SSW,202,0.0,0.0,68,0.00,,,0.00,JAVA,2013-12-25 15:56:00,
2013-12-25 07:01:00,-35.1,-41.7,28.53,SSW,202,0.0,0.0,67,0.00,,,0.00,JAVA,2013-12-25 16:01:00,
2013-12-25 07:06:00,-35.6,-41.8,28.53,SSW,202,0.0,0.0,67,0.00,,,0.00,JAVA,2013-12-25 16:06:00,
2013-12-25 07:11:00,-34.9,-41.1,28.53,SSW,202,0.0,0.0,68,0.00,,,0.00,JAVA,2013-12-25 16:11:00,
2013-12-25 07:16:00,-35.1,-41.5,28.53,SSW,202,0.0,0.0,68,0.00,,,0.00,JAVA,2013-12-25 16:16:00,
2013-12-25 07:21:00,-35.2,-41.6,28.53,SSW,202,0.0,0.0,67,0.00,,,0.00,JAVA,2013-12-25 16:21:00,
2013-12-25 07:26:00,-35.7,-42.6,28.54,SSW,202,0.0,0.0,66,0.00,,,0.00,JAVA,2013-12-25 16:26:00,
2013-12-25 07:32:00,-36.2,-42.9,28.54,SSW,202,0.0,0.0,66,0.00,,,0.00,JAVA,2013-12-25 16:32:00,
2013-12-25 07:37:00,-36.5,-43.0,28.53,SSW,202,0.0,0.0,67,0.00,,,0.00,JAVA,2013-12-25 16:37:00,
2013-12-25 07:42:00,-36.2,-42.8,28.53,SSW,202,0.0,0.0,67,0.00,,,0.00,JAVA,2013-12-25 16:42:00,
2013-12-25 07:47:00,-36.6,-42.9,28.53,SSW,202,0.0,0.0,67,0.00,,,0.00,JAVA,2013-12-25 16:47:00,
2013-12-25 07:52:00,-36.6,-43.0,28.53,SSW,202,0.0,0.0,67,0.00,,,0.00,JAVA,2013-12-25 16:52:00,
2013-12-25 07:57:00,-36.5,-42.6,28.53,SSW,202,0.0,0.0,68,0.00,,,0.00,JAVA,2013-12-25 16:57:00,
2013-12-25 08:02:00,-36.2,-42.3,28.53,SSW,202,0.0,0.0,68,0.00,,,0.00,JAVA,2013-12-25 17:02:00,
2013-12-25 08:07:00,-35.7,-41.8,28.54,SSW,202,0.0,0.0,69,0.00,,,0.00,JAVA,2013-12-25 17:07:00,
2013-12-25 08:12:00,-35.8,-42.1,28.54,SSW,202,0.0,0.0,68,0.00,,,0.00,JAVA,2013-12-25 17:12:00,
2013-12-25 08:17:00,-36.0,-42.5,28.54,SSW,202,0.0,0.0,67,0.00,,,0.00,JAVA,2013-12-25 17:17:00,
2013-12-25 08:23:00,-36.2,-42.5,28.54,SSW,202,0.0,0.0,67,0.00,,,0.00,JAVA,2013-12-25 17:23:00,
2013-12-25 08:28:00,-36.0,-42.3,28.54,SSW,202,0.0,0.0,68,0.00,,,0.00,JAVA,2013-12-25 17:28:00,
2013-12-25 08:33:00,-35.6,-41.7,28.55,SSW,202,0.0,0.0,68,0.00,,,0.00,JAVA,2013-12-25 17:33:00,
2013-12-25 08:38:00,-35.8,-42.0,28.54,SSW,202,0.0,0.0,68,0.00,,,0.00,JAVA,2013-12-25 17:38:00,
2013-12-25 08:43:00,-35.7,-41.9,28.55,SSW,202,0.0,0.0,68,0.00,,,0.00,JAVA,2013-12-25 17:43:00,
2013-12-25 08:48:00,-35.7,-42.1,28.55,SSW,202,0.0,0.0,67,0.00,,,0.00,JAVA,2013-12-25 17:48:00,
2013-12-25 08:53:00,-35.9,-42.5,28.55,SSW,202,0.0,0.0,67,0.00,,,0.00,JAVA,2013-12-25 17:53:00,
2013-12-25 08:58:00,-36.5,-43.0,28.55,SSW,202,0.0,0.0,66,0.00,,,0.00,JAVA,2013-12-25 17:58:00,
2013-12-25 09:03:00,-36.8,-43.3,28.55,SSW,202,0.0,0.0,66,0.00,,,0.00,JAVA,2013-12-25 18:03:00,
2013-12-25 09:09:00,-37.2,-43.9,28.56,SSW,202,0.0,0.0,66,0.00,,,0.00,JAVA,2013-12-25 18:09:00,
2013-12-25 09:14:00,-37.1,-43.6,28.55,SSW,202,0.0,0.0,66,0.00,,,0.00,JAVA,2013-12-25 18:14:00,
2013-12-25 09:19:00,-37.2,-43.7,28.55,SSW,202,0.0,0.0,67,0.00,,,0.00,JAVA,2013-12-25 18:19:00,
2013-12-25 09:24:00,-37.1,-43.5,28.56,SSW,202,0.0,0.0,67,0.00,,,0.00,JAVA,2013-12-25 18:24:00,
2013-12-25 09:29:00,-37.3,-44.1,28.56,SSW,202,0.0,0.0,67,0.00,,,0.00,JAVA,2013-12-25 18:29:00,
2013-12-25 09:34:00,-37.2,-43.5,28.57,SSW,202,0.0,0.0,67,0.00,,,0.00,JAVA,2013-12-25 18:34:00,
2013-12-25 09:39:00,-36.9,-43.1,28.57,SSW,202,0.0,0.0,68,0.00,,,0.00,JAVA,2013-12-25 18:39:00,
2013-12-25 09:44:00,-36.9,-42.8,28.56,SSW,202,0.0,0.0,68,0.00,,,0.00,JAVA,2013-12-25 18:44:00,
2013-12-25 09:49:00,-37.0,-42.9,28.57,SSW,202,0.0,0.0,68,0.00,,,0.00,JAVA,2013-12-25 18:49:00,
2013-12-25 09:55:00,-36.6,-42.5,28.56,SSW,202,0.0,0.0,69,0.00,,,0.00,JAVA,2013-12-25 18:55:00,
2013-12-25 10:00:00,-36.0,-42.1,28.56,SSW,202,0.0,0.0,69,0.00,,,0.00,JAVA,2013-12-25 19:00:00,
2013-12-25 10:05:00,-36.3,-42.7,28.57,SSW,202,0.0,0.0,68,0.00,,,0.00,JAVA,2013-12-25 19:05:00,
2013-12-25 10:10:00,-36.7,-43.1,28.57,SSW,202,0.0,0.0,67,0.00,,,0.00,JAVA,2013-12-25 19:10:00,
2013-12-25 10:15:00,-37.1,-43.6,28.57,SSW,202,0.0,0.0,66,0.00,,,0.00,JAVA,2013-12-25 19:15:00,
2013-12-25 10:20:00,-37.2,-43.6,28.57,SSW,202,0.0,0.0,67,0.00,,,0.00,JAVA,2013-12-25 19:20:00,
2013-12-25 10:25:00,-37.0,-43.6,28.57,SSW,202,0.0,0.0,67,0.00,,,0.00,JAVA,2013-12-25 19:25:00,
2013-12-25 10:30:00,-38.0,-44.6,28.57,SSW,202,0.0,0.0,66,0.00,,,0.00,JAVA,2013-12-25 19:30:00,
2013-12-25 10:35:00,-38.3,-44.8,28.57,SSW,202,0.0,0.0,66,0.00,,,0.00,JAVA,2013-12-25 19:35:00,
2013-12-25 10:41:00,-37.8,-44.4,28.57,SSW,202,0.0,0.0,67,0.00,,,0.00,JAVA,2013-12-25 19:41:00,
2013-12-25 10:44:00,-38.0,-44.4,28.57,SSW,202,0.0,0.0,67,0.00,,,0.00,JAVA,2013-12-25 19:44:00,
2013-12-25 10:49:00,-37.7,-43.9,28.57,SSW,202,0.0,0.0,67,0.00,,,0.00,JAVA,2013-12-25 19:49:00,
2013-12-25 10:54:00,-37.5,-43.8,28.57,SSW,202,0.0,0.0,67,0.00,,,0.00,JAVA,2013-12-25 19:54:00,
2013-12-25 10:59:00,-36.8,-42.9,28.58,SSW,202,0.0,0.0,68,0.00,,,0.00,JAVA,2013-12-25 19:59:00,
2013-12-25 11:04:00,-36.3,-42.5,28.57,SSW,202,0.0,0.0,69,0.00,,,0.00,JAVA,2013-12-25 20:04:00,
2013-12-25 11:10:00,-36.6,-42.9,28.58,SSW,202,0.0,0.0,68,0.00,,,0.00,JAVA,2013-12-25 20:10:00,
2013-12-25 11:15:00,-36.5,-42.6,28.58,SSW,202,0.0,0.0,68,0.00,,,0.00,JAVA,2013-12-25 20:15:00,
2013-12-25 11:20:00,-36.5,-42.8,28.58,SSW,202,0.0,0.0,67,0.00,,,0.00,JAVA,2013-12-25 20:20:00,
2013-12-25 11:25:00,-36.3,-42.4,28.58,SSW,202,0.0,0.0,68,0.00,,,0.00,JAVA,2013-12-25 20:25:00,
2013-12-25 11:30:00,-35.8,-42.2,28.58,SSW,202,0.0,0.0,68,0.00,,,0.00,JAVA,2013-12-25 20:30:00,
2013-12-25 11:35:00,-35.8,-42.3,28.58,SSW,202,0.0,0.0,67,0.00,,,0.00,JAVA,2013-12-25 20:35:00,
2013-12-25 11:40:00,-36.2,-42.9,28.58,SSW,202,0.0,0.0,67,0.00,,,0.00,JAVA,2013-12-25 20:40:00,
2013-12-25 11:45:00,-36.5,-42.8,28.58,SSW,202,0.0,0.0,67,0.00,,,0.00,JAVA,2013-12-25 20:45:00,
2013-12-25 11:50:00,-36.1,-42.2,28.58,SSW,202,0.0,0.0,68,0.00,,,0.00,JAVA,2013-12-25 20:50:00,
2013-12-25 11:56:00,-35.4,-41.7,28.58,SSW,202,0.0,0.0,68,0.00,,,0.00,JAVA,2013-12-25 20:56:00,
2013-12-25 12:01:00,-35.0,-41.3,28.59,SSW,202,0.0,0.0,69,0.00,,,0.00,JAVA,2013-12-25 21:01:00,
2013-12-25 12:06:00,-34.7,-40.8,28.59,SSW,202,0.0,0.0,69,0.00,,,0.00,JAVA,2013-12-25 21:06:00,
2013-12-25 12:11:00,-34.3,-40.3,28.59,SSW,202,0.0,0.0,69,0.00,,,0.00,JAVA,2013-12-25 21:11:00,
2013-12-25 12:16:00,-34.1,-40.3,28.59,SSW,202,0.0,0.0,68,0.00,,,0.00,JAVA,2013-12-25 21:16:00,
2013-12-25 12:21:00,-34.3,-40.6,28.59,SSW,202,0.0,0.0,68,0.00,,,0.00,JAVA,2013-12-25 21:21:00,
2013-12-25 12:26:00,-34.3,-40.8,28.59,SSW,202,0.0,0.0,67,0.00,,,0.00,JAVA,2013-12-25 21:26:00,
2013-12-25 12:31:00,-33.9,-40.0,28.58,SSW,202,0.0,0.0,68,0.00,,,0.00,JAVA,2013-12-25 21:31:00,
2013-12-25 12:36:00,-33.1,-39.3,28.58,SSW,202,0.0,0.0,69,0.00,,,0.00,JAVA,2013-12-25 21:36:00,
2013-12-25 12:41:00,-32.6,-38.8,28.58,SSW,202,0.0,0.0,69,0.00,,,0.00,JAVA,2013-12-25 21:41:00,
2013-12-25 12:47:00,-32.5,-38.8,28.59,SSW,202,0.0,0.0,69,0.00,,,0.00,JAVA,2013-12-25 21:47:00,
2013-12-25 12:52:00,-32.6,-38.9,28.59,SSW,202,0.0,0.0,68,0.00,,,0.00,JAVA,2013-12-25 21:52:00,
2013-12-25 12:57:00,-32.6,-38.9,28.58,SSW,202,0.0,0.0,68,0.00,,,0.00,JAVA,2013-12-25 21:57:00,
2013-12-25 13:02:00,-32.4,-39.2,28.58,SSW,202,0.0,0.0,68,0.00,,,0.00,JAVA,2013-12-25 22:02:00,
2013-12-25 13:07:00,-32.1,-38.6,28.58,SSW,202,0.0,0.0,68,0.00,,,0.00,JAVA,2013-12-25 22:07:00,
2013-12-25 13:12:00,-32.2,-38.9,28.58,SSW,202,0.0,0.0,68,0.00,,,0.00,JAVA,2013-12-25 22:12:00,
2013-12-25 13:17:00,-32.1,-38.6,28.58,SSW,202,0.0,0.0,68,0.00,,,0.00,JAVA,2013-12-25 22:17:00,
2013-12-25 13:22:00,-32.3,-38.6,28.58,SSW,202,0.0,0.0,68,0.00,,,0.00,JAVA,2013-12-25 22:22:00,
2013-12-25 13:27:00,-32.4,-38.8,28.58,SSW,202,0.0,0.0,67,0.00,,,0.00,JAVA,2013-12-25 22:27:00,
2013-12-25 13:32:00,-31.5,-38.1,28.58,SSW,202,0.0,0.0,68,0.00,,,0.00,JAVA,2013-12-25 22:32:00,
2013-12-25 13:38:00,-31.7,-38.6,28.58,SSW,202,0.0,0.0,67,0.00,,,0.00,JAVA,2013-12-25 22:38:00,
2013-12-25 13:43:00,-32.1,-38.9,28.58,SSW,202,0.0,0.0,66,0.00,,,0.00,JAVA,2013-12-25 22:43:00,
2013-12-25 13:48:00,-32.3,-38.7,28.58,SSW,202,0.0,0.0,67,0.00,,,0.00,JAVA,2013-12-25 22:48:00,
2013-12-25 13:53:00,-31.5,-38.1,28.58,SSW,202,0.0,0.0,67,0.00,,,0.00,JAVA,2013-12-25 22:53:00,
2013-12-25 13:58:00,-30.8,-37.7,28.58,SSW,202,0.0,0.0,68,0.00,,,0.00,JAVA,2013-12-25 22:58:00,
2013-12-25 14:03:00,-30.3,-36.7,28.57,SSW,202,0.0,0.0,68,0.00,,,0.00,JAVA,2013-12-25 23:03:00,
2013-12-25 14:08:00,-30.0,-36.5,28.58,SSW,202,0.0,0.0,68,0.00,,,0.00,JAVA,2013-12-25 23:08:00,
2013-12-25 14:13:00,-30.8,-37.8,28.57,SSW,202,0.0,0.0,66,0.00,,,0.00,JAVA,2013-12-25 23:13:00,
2013-12-25 14:18:00,-31.5,-38.5,28.57,SSW,202,0.0,0.0,65,0.00,,,0.00,JAVA,2013-12-25 23:18:00,
2013-12-25 14:23:00,-31.5,-38.6,28.57,SSW,202,0.0,0.0,65,0.00,,,0.00,JAVA,2013-12-25 23:23:00,
2013-12-25 14:28:00,-31.7,-38.9,28.57,SSW,202,0.0,0.0,65,0.00,,,0.00,JAVA,2013-12-25 23:28:00,
2013-12-25 14:34:00,-32.2,-39.0,28.57,SSW,202,0.0,0.0,66,0.00,,,0.00,JAVA,2013-12-25 23:34:00,
2013-12-25 14:39:00,-32.3,-39.0,28.57,SSW,202,0.0,0.0,67,0.00,,,0.00,JAVA,2013-12-25 23:39:00,
2013-12-25 14:44:00,-32.4,-39.0,28.57,SSW,202,0.0,0.0,67,0.00,,,0.00,JAVA,2013-12-25 23:44:00,
2013-12-25 14:49:00,-32.2,-38.8,28.57,SSW,202,0.0,0.0,68,0.00,,,0.00,JAVA,2013-12-25 23:49:00,
2013-12-25 14:54:00,-32.5,-38.6,28.57,SSW,202,0.0,0.0,68,0.00,,,0.00,JAVA,2013-12-25 23:54:00,
2013-12-25 14:59:00,-32.4,-38.3,28.57,SSW,202,0.0,0.0,68,0.00,,,0.00,JAVA,2013-12-25 23:59:00,
2013-12-25 15:04:00,-31.8,-38.1,28.57,SSW,202,0.0,0.0,68,0.00,,,0.00,JAVA,2013-12-26 00:04:00,
2013-12-25 15:09:00,-32.0,-38.1,28.58,SSW,202,0.0,0.0,68,0.00,,,0.00,JAVA,2013-12-26 00:09:00,
2013-12-25 15:14:00,-31.8,-38.3,28.57,SSW,202,0.0,0.0,68,0.00,,,0.00,JAVA,2013-12-26 00:14:00,
2013-12-25 15:19:00,-31.6,-38.1,28.57,SSW,202,0.0,0.0,68,0.00,,,0.00,JAVA,2013-12-26 00:19:00,
2013-12-25 15:25:00,-32.5,-39.4,28.58,SSW,202,0.0,0.0,66,0.00,,,0.00,JAVA,2013-12-26 00:25:00,
2013-12-25 15:30:00,-33.2,-39.9,28.57,SSW,202,0.0,0.0,66,0.00,,,0.00,JAVA,2013-12-26 00:30:00,
2013-12-25 15:35:00,-33.0,-39.7,28.57,SSW,202,0.0,0.0,67,0.00,,,0.00,JAVA,2013-12-26 00:35:00,
2013-12-25 15:40:00,-32.8,-39.0,28.57,SSW,202,0.0,0.0,68,0.00,,,0.00,JAVA,2013-12-26 00:40:00,
2013-12-25 15:45:00,-32.4,-38.9,28.57,SSW,202,0.0,0.0,68,0.00,,,0.00,JAVA,2013-12-26 00:45:00,
2013-12-25 15:50:00,-32.5,-39.0,28.57,SSW,202,0.0,0.0,67,0.00,,,0.00,JAVA,2013-12-26 00:50:00,
2013-12-25 15:55:00,-32.8,-39.3,28.57,SSW,202,0.0,0.0,67,0.00,,,0.00,JAVA,2013-12-26 00:55:00,
2013-12-25 16:00:00,-33.0,-39.4,28.57,SSW,202,0.0,0.0,67,0.00,,,0.00,JAVA,2013-12-26 01:00:00,
2013-12-25 16:05:00,-33.0,-39.8,28.57,SSW,202,0.0,0.0,67,0.00,,,0.00,JAVA,2013-12-26 01:05:00,
2013-12-25 16:10:00,-33.6,-40.3,28.57,SSW,202,0.0,0.0,66,0.00,,,0.00,JAVA,2013-12-26 01:10:00,
2013-12-25 16:15:00,-34.0,-40.7,28.57,SSW,202,0.0,0.0,66,0.00,,,0.00,JAVA,2013-12-26 01:15:00,
2013-12-25 16:20:00,-34.0,-40.8,28.57,SSW,202,0.0,0.0,66,0.00,,,0.00,JAVA,2013-12-26 01:20:00,
2013-12-25 16:26:00,-33.9,-40.5,28.57,SSW,202,0.0,0.0,67,0.00,,,0.00,JAVA,2013-12-26 01:26:00,
2013-12-25 16:31:00,-33.9,-40.6,28.57,SSW,202,0.0,0.0,67,0.00,,,0.00,JAVA,2013-12-26 01:31:00,
2013-12-25 16:36:00,-34.1,-40.6,28.57,SSW,202,0.0,0.0,67,0.00,,,0.00,JAVA,2013-12-26 01:36:00,
2013-12-25 16:41:00,-34.3,-40.9,28.57,SSW,202,0.0,0.0,67,0.00,,,0.00,JAVA,2013-12-26 01:41:00,
2013-12-25 16:46:00,-34.5,-41.1,28.57,SSW,202,0.0,0.0,67,0.00,,,0.00,JAVA,2013-12-26 01:46:00,
2013-12-25 16:51:00,-34.9,-41.6,28.57,SSW,202,0.0,0.0,66,0.00,,,0.00,JAVA,2013-12-26 01:51:00,
2013-12-25 16:56:00,-34.4,-41.3,28.57,SSW,202,0.0,0.0,66,0.00,,,0.00,JAVA,2013-12-26 01:56:00,
2013-12-25 17:01:00,-34.9,-41.7,28.57,SSW,202,0.0,0.0,66,0.00,,,0.00,JAVA,2013-12-26 02:01:00,
2013-12-25 17:06:00,-35.2,-42.0,28.57,SSW,202,0.0,0.0,66,0.00,,,0.00,JAVA,2013-12-26 02:06:00,
2013-12-25 17:11:00,-35.3,-42.2,28.57,SSW,202,0.0,0.0,66,0.00,,,0.00,JAVA,2013-12-26 02:11:00,
2013-12-25 17:17:00,-35.4,-41.8,28.57,SSW,202,0.0,0.0,67,0.00,,,0.00,JAVA,2013-12-26 02:17:00,
2013-12-25 17:22:00,-35.0,-41.4,28.57,SSW,202,0.0,0.0,68,0.00,,,0.00,JAVA,2013-12-26 02:22:00,
2013-12-25 17:27:00,-35.0,-41.7,28.57,SSW,202,0.0,0.0,67,0.00,,,0.00,JAVA,2013-12-26 02:27:00,
2013-12-25 17:32:00,-35.2,-41.9,28.57,SSW,202,0.0,0.0,67,0.00,,,0.00,JAVA,2013-12-26 02:32:00,
2013-12-25 17:37:00,-35.4,-42.1,28.57,SSW,202,0.0,0.0,67,0.00,,,0.00,JAVA,2013-12-26 02:37:00,
2013-12-25 17:42:00,-35.6,-42.1,28.57,SSW,202,0.0,0.0,67,0.00,,,0.00,JAVA,2013-12-26 02:42:00,
2013-12-25 17:47:00,-35.8,-42.4,28.57,SSW,202,0.0,0.0,67,0.00,,,0.00,JAVA,2013-12-26 02:47:00,
2013-12-25 17:52:00,-35.8,-42.5,28.57,SSW,202,0.0,0.0,67,0.00,,,0.00,JAVA,2013-12-26 02:52:00,
2013-12-25 17:58:00,-35.9,-42.4,28.57,SSW,202,0.0,0.0,67,0.00,,,0.00,JAVA,2013-12-26 02:58:00,
2013-12-25 18:03:00,-35.9,-42.4,28.57,SSW,202,0.0,0.0,68,0.00,,,0.00,JAVA,2013-12-26 03:03:00,
2013-12-25 18:08:00,-35.8,-42.1,28.57,SSW,202,0.0,0.0,68,0.00,,,0.00,JAVA,2013-12-26 03:08:00,
2013-12-25 18:13:00,-35.0,-41.0,28.57,SSW,202,0.0,0.0,69,0.00,,,0.00,JAVA,2013-12-26 03:13:00,
2013-12-25 18:18:00,-35.1,-41.4,28.57,SSW,202,0.0,0.0,68,0.00,,,0.00,JAVA,2013-12-26 03:18:00,
2013-12-25 18:23:00,-35.4,-41.9,28.57,SSW,202,0.0,0.0,67,0.00,,,0.00,JAVA,2013-12-26 03:23:00,
2013-12-25 18:28:00,-35.2,-41.7,28.57,SSW,202,0.0,0.0,68,0.00,,,0.00,JAVA,2013-12-26 03:28:00,
2013-12-25 18:33:00,-35.1,-41.3,28.57,SSW,202,0.0,0.0,68,0.00,,,0.00,JAVA,2013-12-26 03:33:00,
2013-12-25 18:38:00,-34.7,-41.0,28.57,SSW,202,0.0,0.0,68,0.00,,,0.00,JAVA,2013-12-26 03:38:00,
2013-12-25 18:43:00,-34.4,-40.8,28.57,SSW,202,0.0,0.0,68,0.00,,,0.00,JAVA,2013-12-26 03:43:00,
2013-12-25 18:48:00,-34.8,-41.3,28.58,SSW,202,0.0,0.0,67,0.00,,,0.00,JAVA,2013-12-26 03:48:00,
2013-12-25 18:54:00,-35.1,-41.9,28.58,SSW,202,0.0,0.0,66,0.00,,,0.00,JAVA,2013-12-26 03:54:00,
2013-12-25 18:59:00,-35.9,-42.5,28.58,SSW,202,0.0,0.0,66,0.00,,,0.00,JAVA,2013-12-26 03:59:00,
2013-12-25 19:04:00,-35.7,-42.4,28.58,SSW,202,0.0,0.0,67,0.00,,,0.00,JAVA,2013-12-26 04:04:00,
2013-12-25 19:09:00,-35.7,-42.5,28.58,SSW,202,0.0,0.0,67,0.00,,,0.00,JAVA,2013-12-26 04:09:00,
2013-12-25 19:14:00,-36.0,-42.4,28.58,SSW,202,0.0,0.0,67,0.00,,,0.00,JAVA,2013-12-26 04:14:00,
2013-12-25 19:19:00,-36.0,-42.5,28.57,SSW,202,0.0,0.0,67,0.00,,,0.00,JAVA,2013-12-26 04:19:00,
2013-12-25 19:24:00,-36.1,-42.6,28.57,SSW,202,0.0,0.0,67,0.00,,,0.00,JAVA,2013-12-26 04:24:00,
2013-12-25 19:29:00,-36.2,-42.8,28.57,SSW,202,0.0,0.0,67,0.00,,,0.00,JAVA,2013-12-26 04:29:00,
2013-12-25 19:35:00,-36.5,-42.6,28.57,SSW,202,0.0,0.0,67,0.00,,,0.00,JAVA,2013-12-26 04:35:00,
2013-12-25 19:40:00,-35.9,-42.4,28.57,SSW,202,0.0,0.0,68,0.00,,,0.00,JAVA,2013-12-26 04:40:00,
2013-12-25 19:45:00,-35.9,-42.3,28.57,SSW,202,0.0,0.0,67,0.00,,,0.00,JAVA,2013-12-26 04:45:00,
2013-12-25 19:50:00,-35.7,-42.1,28.57,SSW,202,0.0,0.0,68,0.00,,,0.00,JAVA,2013-12-26 04:50:00,
2013-12-25 19:55:00,-35.7,-41.6,28.57,SSW,202,0.0,0.0,68,0.00,,,0.00,JAVA,2013-12-26 04:55:00,
2013-12-25 20:00:00,-35.2,-41.3,28.57,SSW,202,0.0,0.0,69,0.00,,,0.00,JAVA,2013-12-26 05:00:00,
2013-12-25 20:01:00,-35.1,-41.3,28.57,SSW,202,0.0,0.0,68,0.00,,,0.00,JAVA,2013-12-26 05:01:00,
2013-12-25 20:02:00,-35.1,-41.3,28.57,SSW,202,0.0,0.0,68,0.00,,,0.00,JAVA,2013-12-26 05:02:00,
2013-12-25 20:03:00,-35.1,-41.4,28.57,SSW,202,0.0,0.0,68,0.00,,,0.00,JAVA,2013-12-26 05:03:00,
2013-12-25 20:08:00,-34.8,-41.0,28.57,SSW,202,0.0,0.0,68,0.00,,,0.00,JAVA,2013-12-26 05:08:00,
2013-12-25 20:13:00,-35.4,-41.8,28.57,SSW,202,0.0,0.0,67,0.00,,,0.00,JAVA,2013-12-26 05:13:00,
2013-12-25 20:18:00,-35.8,-42.5,28.57,SSW,202,0.0,0.0,67,0.00,,,0.00,JAVA,2013-12-26 05:18:00,
2013-12-25 20:23:00,-36.0,-42.6,28.57,SSW,202,0.0,0.0,67,0.00,,,0.00,JAVA,2013-12-26 05:23:00,
2013-12-25 20:28:00,-36.1,-42.3,28.57,SSW,202,0.0,0.0,67,0.00,,,0.00,JAVA,2013-12-26 05:28:00,
2013-12-25 20:33:00,-35.7,-41.9,28.57,SSW,202,0.0,0.0,68,0.00,,,0.00,JAVA,2013-12-26 05:33:00,
2013-12-25 20:38:00,-35.3,-41.7,28.57,SSW,202,0.0,0.0,68,0.00,,,0.00,JAVA,2013-12-26 05:38:00,
2013-12-25 20:43:00,-34.5,-40.7,28.57,SSW,202,0.0,0.0,69,0.00,,,0.00,JAVA,2013-12-26 05:43:00,
2013-12-25 20:48:00,-34.4,-40.5,28.57,SSW,202,0.0,0.0,69,0.00,,,0.00,JAVA,2013-12-26 05:48:00,
2013-12-25 20:54:00,-34.1,-40.4,28.57,SSW,202,0.0,0.0,68,0.00,,,0.00,JAVA,2013-12-26 05:54:00,
2013-12-25 20:59:00,-34.1,-40.2,28.57,SSW,202,0.0,0.0,68,0.00,,,0.00,JAVA,2013-12-26 05:59:00,
2013-12-25 21:04:00,-33.9,-40.2,28.55,SSW,202,0.0,0.0,68,0.00,,,0.00,JAVA,2013-12-26 06:04:00,
2013-12-25 21:09:00,-34.3,-40.7,28.56,SSW,202,0.0,0.0,68,0.00,,,0.00,JAVA,2013-12-26 06:09:00,
2013-12-25 21:14:00,-34.7,-41.1,28.56,SSW,202,0.0,0.0,67,0.00,,,0.00,JAVA,2013-12-26 06:14:00,
2013-12-25 21:19:00,-34.7,-41.2,28.56,SSW,202,0.0,0.0,67,0.00,,,0.00,JAVA,2013-12-26 06:19:00,
2013-12-25 21:24:00,-34.8,-41.0,28.56,SSW,202,0.0,0.0,68,0.00,,,0.00,JAVA,2013-12-26 06:24:00,
2013-12-25 21:29:00,-34.2,-40.6,28.56,SSW,202,0.0,0.0,68,0.00,,,0.00,JAVA,2013-12-26 06:29:00,
2013-12-25 21:35:00,-34.2,-40.8,28.56,SSW,202,0.0,0.0,68,0.00,,,0.00,JAVA,2013-12-26 06:35:00,
2013-12-25 21:40:00,-34.4,-41.0,28.56,SSW,202,0.0,0.0,67,0.00,,,0.00,JAVA,2013-12-26 06:40:00,
2013-12-25 21:45:00,-34.5,-40.9,28.56,SSW,202,0.0,0.0,68,0.00,,,0.00,JAVA,2013-12-26 06:45:00,
2013-12-25 21:50:00,-34.3,-40.9,28.57,SSW,202,0.0,0.0,67,0.00,,,0.00,JAVA,2013-12-26 06:50:00,
2013-12-25 21:55:00,-34.7,-40.9,28.56,SSW,202,0.0,0.0,68,0.00,,,0.00,JAVA,2013-12-26 06:55:00,
2013-12-25 22:00:00,-34.1,-40.1,28.56,SSW,202,0.0,0.0,69,0.00,,,0.00,JAVA,2013-12-26 07:00:00,
2013-12-25 22:05:00,-33.6,-39.7,28.57,SSW,202,0.0,0.0,69,0.00,,,0.00,JAVA,2013-12-26 07:05:00,
2013-12-25 22:10:00,-34.0,-40.4,28.56,SSW,202,0.0,0.0,68,0.00,,,0.00,JAVA,2013-12-26 07:10:00,
2013-12-25 22:15:00,-34.2,-40.5,28.56,SSW,202,0.0,0.0,67,0.00,,,0.00,JAVA,2013-12-26 07:15:00,
2013-12-25 22:20:00,-34.4,-40.8,28.56,SSW,202,0.0,0.0,67,0.00,,,0.00,JAVA,2013-12-26 07:20:00,
2013-12-25 22:26:00,-33.8,-40.0,28.56,SSW,202,0.0,0.0,68,0.00,,,0.00,JAVA,2013-12-26 07:26:00,
2013-12-25 22:31:00,-33.8,-39.5,28.55,SSW,202,0.0,0.0,69,0.00,,,0.00,JAVA,2013-12-26 07:31:00,
2013-12-25 22:36:00,-33.2,-39.5,28.55,SSW,202,0.0,0.0,69,0.00,,,0.00,JAVA,2013-12-26 07:36:00,
2013-12-25 22:41:00,-33.4,-39.7,28.55,SSW,202,0.0,0.0,68,0.00,,,0.00,JAVA,2013-12-26 07:41:00,
2013-12-25 22:46:00,-34.0,-40.8,28.55,SSW,202,0.0,0.0,66,0.00,,,0.00,JAVA,2013-12-26 07:46:00,
2013-12-25 22:51:00,-34.9,-41.7,28.55,SSW,202,0.0,0.0,66,0.00,,,0.00,JAVA,2013-12-26 07:51:00,
2013-12-25 22:56:00,-34.9,-41.7,28.55,SSW,202,0.0,0.0,66,0.00,,,0.00,JAVA,2013-12-26 07:56:00,
2013-12-25 23:01:00,-34.9,-41.3,28.55,SSW,202,0.0,0.0,67,0.00,,,0.00,JAVA,2013-12-26 08:01:00,
2013-12-25 23:06:00,-34.5,-40.9,28.55,SSW,202,0.0,0.0,68,0.00,,,0.00,JAVA,2013-12-26 08:06:00,
2013-12-25 23:11:00,-34.3,-40.7,28.55,SSW,202,0.0,0.0,68,0.00,,,0.00,JAVA,2013-12-26 08:11:00,
2013-12-25 23:16:00,-34.2,-40.6,28.55,SSW,202,0.0,0.0,68,0.00,,,0.00,JAVA,2013-12-26 08:16:00,
2013-12-25 23:22:00,-34.0,-40.1,28.55,SSW,202,0.0,0.0,69,0.00,,,0.00,JAVA,2013-12-26 08:22:00,
2013-12-25 23:27:00,-33.9,-39.7,28.55,SSW,202,0.0,0.0,69,0.00,,,0.00,JAVA,2013-12-26 08:27:00,
2013-12-25 23:32:00,-33.3,-39.6,28.55,SSW,202,0.0,0.0,69,0.00,,,0.00,JAVA,2013-12-26 08:32:00,
2013-12-25 23:37:00,-33.5,-39.9,28.55,SSW,202,0.0,0.0,68,0.00,,,0.00,JAVA,2013-12-26 08:37:00,
2013-12-25 23:42:00,-33.6,-40.1,28.55,SSW,202,0.0,0.0,68,0.00,,,0.00,JAVA,2013-12-26 08:42:00,
2013-12-25 23:47:00,-33.9,-40.3,28.55,SSW,202,0.0,0.0,68,0.00,,,0.00,JAVA,2013-12-26 08:47:00,
2013-12-25 23:52:00,-33.9,-40.0,28.55,SSW,202,0.0,0.0,69,0.00,,,0.00,JAVA,2013-12-26 08:52:00,
2013-12-25 23:57:00,-33.6,-39.7,28.55,SSW,202,0.0,0.0,69,0.00,,,0.00,JAVA,2013-12-26 08:57:00,